星链-30714 (STARLINK-30714 )

导读

STARLINK-30714是美国星链计划中的一颗卫星,于2023年9月25日发射。它隶属于SpaceX公司打造的星链卫星互联网星座,旨在为全球多地提供高速低延迟互联网服务,尤其覆盖偏远与网络基础设施薄弱地区,进一步扩充了星链星座的在轨运行规模,推动全球卫星互联网组网进程。

Basic Information
目录编号:
57939
目录名称:
STARLINK-30714
国际标识:
2023-148E
轨道中心:
EARTH
卫星名称:
星链-30714
卫星全名:
星链-30714 (STARLINK-30714 )
卫星状态:
在轨 (已飞行1075 天)
发射日期:
2023-09-25 UTC
国别 :
美国 (US)
星等 :
--
Orbit Information
数据来源 国际轨道数据
星历时间: 2026-09-02T18:53:32+0800
1天前
查看轨道信息
半长轴: 6834.046km
偏心率: 0.0005925
轨道倾角: 53.156°
近地点辐角 8.844°
升交点赤经 281.860°
平近点角 351.267°
近地点: 451.859km
远地点: 459.959km
周期: 93.708分钟
每日圈数: 15.366888
Detailed Information
固有亮度:
5
最大亮度:
0.3
卫星平台:
Starlink v2.0 mini
覆盖范围:
全球
运营商:
太空探索技术公司
运营商所在国:
美国
制造商(研发单位):
太空探索技术公司
制造商所在国:
美国
使用方式:
暂无
Satellite Introduction
星链(Starlink)计划是由太空探索技术公司(SpaceX)提出的一个巨型低轨卫星互联网星座项目,计划在2019年至2024年间在太空搭建由约1.2万颗卫星组成的“星链”网络,其中1584颗将部署在地球上空550千米处的近地轨道,并从2020年开始工作。该卫星仍在工作。
2D Orbit Map
3D Orbit Map
Orbit Altitude Analysis Chart
Orbit Inclination Analysis Chart
Orbit Comprehensive Analysis Chart
View Comprehensive Chart
Conjunction Data List
Event ID Objects TCA Miss Dist (km) Collision Risk Probability Collision Risk Index (CRI) Action
CDM_260829-215005-237805-793922
2026-08-29T
21:50:13+0000
2.905 km
极远距离
1.247316E-6 低风险 0.37
CDM_260905-083405-016705-793921
2026-09-05T
08:34:17+0000
2.814 km
极远距离
1.139831E-6 低风险 0.36